Location: Sawyer Lake
(45.2517°N, 88.7550°W)
Time: 11:37:18
(UTC-05:00)

Daily predictions for brighter satellites

Satellite Brightness Start Highest point End
(mag) Time Altitude Azimuth Time Altitude Azimuth Time Altitude Azimuth
Cosmos 2173 Rocket 4.4 20:53:09 10° SSW 20:59:31 74° W 21:05:55 10° N
Cosmos 2061 Rocket 4.2 20:53:11 10° S 20:59:35 87° W 21:05:58 10° N
Cosmos 332 Rocket 4.0 20:56:14 10° SSW 21:01:01 79° WNW 21:05:53 10° NNE
Okean 3 3.5 20:58:45 10° S 21:03:01 72° E 21:07:18 10° NNE
Cosmos 1300 Rocket 3.8 21:02:13 10° NNW 21:06:37 76° W 21:10:57 10° S
ATLAS 3B R/B 2.8 21:00:26 10° SSW 21:07:27 58° ESE 21:14:12 10° NE
Cosmos 1939 Rocket 4.3 21:08:14 10° SSW 21:12:04 38° W 21:15:58 10° NNW
Cosmos 44 Rocket 4.4 21:09:10 10° NW 21:14:05 44° WSW 21:18:59 10° S
Okean 1 3.4 21:11:23 10° S 21:15:21 59° E 21:19:22 10° NNE
Spot 2 Rocket 3.9 21:13:44 10° S 21:18:45 66° WSW 21:23:47 10° NNW
Cosmos 1697 Rocket 3.8 21:14:09 10° NW 21:19:27 42° WSW 21:24:42 10° S
Tsikada Rocket 4.1 21:14:15 10° N 21:20:42 85° E 21:27:08 10° S
Cosmos 2016 Rocket 4.3 21:14:45 10° SSW 21:20:50 71° W 21:26:59 10° N
Lacrosse 5 rocket 3.6 21:18:52 10° NW 21:22:17 21° NNE 21:25:33 10° ENE
Terra 3.8 21:20:55 10° E 21:23:32 15° ENE 21:26:10 10° NNE
Cosmos 1937 Rocket 4.3 21:18:52 10° N 21:23:39 37° ENE 21:27:55 12° SE
Cosmos 1500 4.3 21:20:14 10° NNW 21:23:57 46° W 21:27:38 10° SSW
Shenzhou-11 Module 2.3 21:21:21 10° WSW 21:24:13 45° S 21:26:59 11° E
Cosmos 468 Rocket 4.5 21:21:11 10° S 21:26:05 40° ESE 21:30:58 10° NE
USA 245 4.2 21:25:00 13° SE 21:27:25 31° ENE 21:30:58 10° N
Meteor 1-18 Rocket 4.3 21:22:10 10° S 21:27:59 86° E 21:33:57 10° NNE
Cosmos 2360 Rocket 3.7 21:23:42 10° N 21:28:17 24° NE 21:32:50 10° ESE
ISS -3.2 21:26:06 10° SSW 21:29:05 33° SE 21:32:03 10° ENE
Cosmos 1725 Rocket 4.1 21:24:15 10° S 21:30:25 81° W 21:36:40 10° N
Cosmos 1980 Rocket 2.7 21:25:48 10° NNW 21:31:21 58° WSW 21:36:53 10° S
MetOp-B 4.2 21:27:45 10° SSE 21:33:00 67° ENE 21:38:20 10° N
SL-08 RB Rocket 3.8 21:29:45 12° SSE 21:33:52 60° ENE 21:38:23 10° N
Cosmos 1570 Rocket 4.0 21:29:12 10° S 21:34:29 69° ESE 21:39:50 10° NNE
SL-23 DEB 4.4 21:33:20 10° W 21:36:33 56° NNW 21:41:09 10° ENE
USA 238 DEB 3.8 21:29:43 10° SW 21:36:36 85° NW 21:43:38 10° NE
USA 238 3.8 21:29:50 10° SW 21:36:42 86° NW 21:43:44 10° NE
Cosmos 1666 2.7 21:35:09 10° N 21:39:02 82° ENE 21:42:31 13° S
Cosmos 1763 Rocket 4.2 21:34:24 10° SSE 21:39:07 34° ESE 21:43:50 10° NE
Cosmos 1743 2.6 21:36:39 10° N 21:40:30 78° E 21:43:47 14° SSE
SPOT 1/Viking Rocket 4.2 21:40:44 15° SE 21:44:36 41° ENE 21:49:26 10° N
H-2A R/B 1.9 21:44:12 13° SSE 21:48:37 84° ENE 21:53:40 10° NNW
Abrixas rocket 3.6 21:46:38 10° SSW 21:48:33 20° SSE 21:48:33 20° SSE
Cosmos 304 Rocket 3.9 21:44:25 10° SSW 21:49:14 79° WNW 21:54:05 10° NNE
Meteor 2-4 Rocket 4.0 21:45:41 13° SSE 21:50:16 45° E 21:55:32 10° NNE
Helios 1B rocket 3.6 21:47:45 10° NE 21:51:12 25° E 21:52:45 20° SE
Cosmos 1455 Rocket 3.5 21:49:16 10° N 21:53:28 46° ENE 21:56:06 21° SE
Cosmos 1340 Rocket 3.7 21:51:32 20° SE 21:53:30 31° E 21:57:07 10° NNE
ATLAS CENTAUR R/B 3.1 21:51:24 10° NW 21:55:24 31° WSW 21:59:24 11° S
DNEPR-1 R/B 3.7 21:52:17 10° SW 21:56:33 80° NW 22:01:27 10° NE
Iridium 2 3.6 21:53:44 14° S 21:56:58 78° E 22:00:49 10° N
Cosmos 1242 Rocket 2.8 21:56:11 10° NNW 21:59:51 70° W 22:02:29 18° S
Cosmos 2208 Rocket 4.1 21:55:52 10° SSW 22:01:04 82° WNW 22:06:17 10° NNE
deb Kosmos-1763 4.0 21:57:37 10° SSW 22:01:18 68° ESE 22:05:00 10° NNE
Cosmos 1898 Rocket 3.6 21:56:13 10° NNW 22:01:31 79° WSW 22:05:31 18° SSE
Cosmos 1356 4.5 22:02:48 25° ESE 22:03:36 28° E 22:06:37 10° NNE
Cosmos 1975 Rocket 3.1 22:00:02 10° SSW 22:04:23 80° W 22:08:43 10° N
Meteor 1-13 Rocket 4.3 21:59:06 10° S 22:04:56 71° E 22:10:52 10° NNE
USA 234 3.8 21:59:19 10° NE 22:05:48 64° NNW 22:12:16 10° WSW
Tiangong 2 2.5 22:04:58 10° SW 22:06:45 22° S 22:06:45 22° S
Resurs 01 Rocket 4.3 22:07:12 10° WSW 22:09:37 14° W 22:12:03 10° WNW
Cosmos 1975 4.2 22:06:26 10° NNW 22:10:10 36° W 22:13:51 10° SSW
NOSS 3-2 (A) 3.5 22:04:30 10° SW 22:10:27 83° NW 22:17:08 10° NE
Cosmos 1814 Rocket 4.1 22:06:16 12° S 22:11:06 59° ESE 22:16:19 10° NNE
BREEZE M DEB (TANK) 3.3 22:01:00 10° WNW 22:11:10 64° SW 22:13:13 27° SE
ERS-1 Rocket 3.1 22:07:59 17° S 22:11:54 73° WSW 22:16:57 10° NNW
Meteor 1-29 4.0 22:10:09 10° NE 22:13:13 28° E 22:13:38 27° ESE
NOSS 3-2 (C) 3.4 22:07:52 10° SSW 22:13:47 79° SE 22:20:26 10° NE
BREEZE-M R/B 2.0 22:10:45 10° WSW 22:14:18 86° NNW 22:16:39 11° ENE
Meteor 2-20 4.5 22:08:27 10° N 22:14:37 87° W 22:19:21 18° S
Meteor 2-20 Rocket 4.4 22:11:28 10° N 22:17:37 77° E 22:21:48 22° SSE
Cosmos 292 Rocket 4.1 22:16:52 24° SSE 22:19:20 45° ESE 22:23:53 10° NNE
Cosmos 1544 Rocket 3.5 22:15:50 10° N 22:20:17 89° E 22:22:46 26° S
Cosmos 2322 Rocket 2.3 22:14:40 10° NNW 22:20:17 72° WSW 22:23:50 23° SSE
Cosmos 1515 4.0 22:21:35 33° SSE 22:22:52 49° E 22:26:35 10° NNE
SL-16 R/B 2.5 22:21:10 10° NNW 22:26:46 61° WSW 22:30:19 23° S
Cosmos 2150 Rocket 4.0 22:22:02 10° NNW 22:27:30 90° ENE 22:30:25 28° SSE
Nadezhda 4 Rocket 4.4 22:22:16 10° N 22:28:25 51° ENE 22:31:47 26° SE
Cosmos 990 Rocket 4.3 22:25:20 10° NNW 22:30:28 61° WSW 22:33:35 24° S
SPOT 5 2.8 22:33:17 27° S 22:35:36 66° WSW 22:40:06 10° NNW
Timation 2 Rocket 4.2 22:31:35 10° SW 22:37:30 66° WNW 22:43:35 10° NNE
Cosmos 1536 Rocket 3.5 22:35:35 32° S 22:37:35 72° E 22:42:03 10° NNE
SJ 16-02 1.8 22:36:11 10° N 22:40:31 49° ENE 22:42:00 34° ESE
Landsat 7 3.9 22:39:40 30° S 22:42:01 77° WSW 22:46:48 10° NNW
Helios 1A 3.7 22:40:33 25° SSW 22:42:39 47° W 22:46:41 10° NNW
CZ-2C R/B 3.4 22:41:02 31° SE 22:43:26 57° ENE 22:48:53 10° N
Cosmos 2298 Rocket 4.4 22:41:29 10° NNW 22:46:41 56° WSW 22:49:22 27° S
CENTAUR R/B 2.5 22:42:22 12° SSW 22:47:49 65° ESE 22:54:38 10° NE
Cosmos 2034 Rocket 3.9 22:49:35 24° S 22:53:29 88° E 22:59:41 10° N
ATLAS 3B R/B 4.1 22:51:50 10° WSW 22:58:26 40° NW 23:04:50 10° NNE
ASTRO F (AKARI) 4.3 22:55:25 10° NNE 22:58:25 63° E 22:58:25 63° E
Cosmos 2084 3.6 22:55:22 10° SW 22:59:38 69° NW 23:03:41 10° NE
Aureole 2 Rocket 3.0 22:57:00 10° NW 22:59:50 39° WSW 22:59:50 39° WSW
Cosmos 1464 Rocket 4.4 22:54:32 15° SSW 22:59:53 63° W 23:06:15 10° N
Shenzhou-11 Module 3.7 22:57:11 10° W 22:58:34 23° WSW 22:58:34 23° WSW
Terra 1.8 22:58:53 38° S 23:00:41 76° WSW 23:05:28 10° NNW
Lacrosse 5 rocket 1.7 22:58:00 10° NW 23:02:17 59° NE 23:03:34 39° E
ISS -2.7 23:02:20 10° W 23:05:30 45° NNW 23:08:40 10° NE
CARTOSAT-1 4.1 23:08:56 36° SSW 23:10:18 50° W 23:14:31 10° NNW
Meteor 1-23 Rocket 4.5 23:06:40 22° SSW 23:10:18 65° WNW 23:15:51 10° N
Cosmos 2360 Rocket 2.4 23:07:10 10° NNW 23:12:44 63° WSW 23:14:49 38° S
YAOGAN 11 4.3 23:11:55 45° SSW 23:13:08 68° WSW 23:17:38 10° NNW
Spot 4 4.1 23:12:09 43° SE 23:13:27 58° ENE 23:18:13 10° N
Cosmos 2219 Rocket 2.8 23:14:09 10° NNW 23:19:34 48° ENE 23:21:44 32° ESE
CZ-4C R/B 3.2 23:12:40 10° NW 23:19:39 63° NE 23:24:16 26° ESE
Okean 2 3.6 23:21:30 46° SW 23:22:31 65° W 23:26:42 10° N
Cosmos 841 Rocket 4.4 23:17:56 12° SW 23:22:39 47° WNW 23:27:45 10° N
Cosmos 540 Rocket 3.6 23:21:34 30° SSW 23:24:10 74° WNW 23:29:22 10° NNE
Cosmos 1634 Rocket 4.1 23:22:17 40° SSE 23:24:33 65° E 23:30:50 10° NNE
Cosmos 2333 Rocket 2.8 23:20:01 10° NNW 23:25:31 48° ENE 23:27:46 32° ESE
Helios 1B rocket 4.1 23:22:50 10° N 23:26:29 31° WNW 23:29:07 16° WSW
CZ-2C R/B 2.7 23:21:54 10° NNE 23:27:34 78° ESE 23:29:28 43° S
Cosmos 1606 Rocket 3.7 23:23:39 10° N 23:28:02 61° E 23:28:35 56° ESE
H-2A R/B 4.4 23:26:55 10° WSW 23:28:45 12° W 23:30:37 10° WNW
COSMOS 2428 2.7 23:23:18 10° NNW 23:29:00 77° ENE 23:30:47 45° SE
Cosmos 1356 Rocket 3.6 23:31:39 54° SW 23:32:28 71° W 23:36:47 10° N
SL-16 R/B 4.4 23:32:46 10° N 23:36:33 18° NE 23:40:20 10° E
COSMOS 2455 4.5 23:37:11 18° E 23:37:11 18° E 23:40:41 10° ENE
Cosmos 1025 Rocket 3.5 23:36:47 43° SW 23:37:51 57° WNW 23:42:11 10° N
Cosmos 372 Rocket 4.3 23:35:11 10° NNW 23:40:11 53° WSW 23:41:19 44° SSW
SAR-Lupe-4 3.8 23:41:26 63° WNW 23:41:26 63° WNW 23:44:48 10° NNW
Cosmos 1544 3.2 23:37:54 10° NNW 23:41:28 69° WNW 23:41:28 69° WNW
Iridium 4 Rocket 4.3 23:45:58 39° ESE 23:47:10 44° E 23:52:41 10° NNE
Cosmos 1980 4.4 23:43:25 10° NNW 23:48:51 44° ENE 23:50:58 31° ESE
